Flag for Switzerland Weather past 2 weeks in Delémont, Jura, Switzerland

Now
30 °F

Chilly.


Feels Like: 30 °F
Forecast: 30 / 49 °F
Wind: No wind

Location: Grenchen

Current Time: Dec 22, 2014 at 9:49:33 PM

Latest Report: Dec 22, 2014 at 9:00 PM


Visibility: N/A

Pressure: 30.49 "Hg

Humidity: 99%

Dew point: 30 °F

Location of DelémontLocation

Historic Weather in Delémont — Graph

°F

Delémont temperature yesterday

Maximum temperature yesterday: 45 °F (at 3:00 PM)
Minimum temperature yesterday: 31 °F (at 11:00 PM)
Average temperature yesterday: 38 °F

Past Weeks' High & Low Weather Summary

 TemperatureHumidityPressure
High53 °F (Dec 19, 1:00 PM)100% (Dec 10, 2:00 AM)30.64 "Hg (Dec 10, 2:00 AM)
Low25 °F (Dec 22, 7:00 AM)58% (Dec 20, 8:00 PM)29.91 "Hg (Dec 12, 4:00 PM)
Average40 °F90%30.22 "Hg
* Reported Dec 7 8:00 PM — Dec 22 8:00 PM, Delémont, Weather by CustomWeather, © 2014

Note: Actual official high and low records may vary slightly from our data, if they occured in-between our weather recording intervals... More about our weather records

Advertising

Delémont weather history for previous 24 hours

 ConditionsComfort  
Time TempWeatherWind HumidityBarometerVisibility
8:00 PM
Dec 22
32 °FChilly.1 mph99%30.48 "HgN/A
7:00 PM33 °FChilly.No wind98%30.47 "HgN/A
6:00 PM35 °FChilly.1 mph96%30.46 "HgN/A
5:00 PM38 °FChilly.2 mph94%30.45 "HgN/A
4:00 PM43 °FQuite cool.2 mph83%30.44 "HgN/A
3:00 PM43 °FQuite cool.3 mph82%30.45 "HgN/A
2:00 PM42 °FQuite cool.1 mph84%30.46 "HgN/A
1:00 PM39 °FChilly.2 mph97%30.49 "HgN/A
12:00 PM36 °FChilly.1 mph100%30.53 "HgN/A
11:00 AM32 °FChilly.2 mph99%30.57 "HgN/A
10:00 AM28 °FChilly.1 mph99%30.57 "HgN/A
9:00 AM26 °FChilly.1 mph99%30.57 "HgN/A
8:00 AM26 °FChilly.2 mph99%30.57 "HgN/A
7:00 AM25 °FChilly.1 mph99%30.57 "HgN/A
6:00 AM26 °FChilly.1 mph100%30.56 "HgN/A
5:00 AM27 °FChilly.1 mph99%30.56 "HgN/A
4:00 AM28 °FChilly.2 mph99%30.58 "HgN/A
3:00 AM28 °FChilly.No wind99%30.60 "HgN/A
2:00 AM29 °FChilly.1 mph99%30.59 "HgN/A
1:00 AM29 °FChilly.1 mph99%30.60 "HgN/A
12:00 AM30 °FChilly.2 mph100%30.61 "HgN/A
11:00 PM
Dec 21
31 °FChilly.No wind99%30.62 "HgN/A
9:00 PM31 °FChilly.1 mph97%30.63 "HgN/A
Weather by CustomWeather, © 2014

See weather overviewHow to use our weather pages